Weather in Bangor

United States     44°48′03″N   68°46′40″W
В апреле 2022 года жителям России запретили посещать сайт meteo.paraplan.net по решению Генеральной прокуратуры. Аудитория сайта уменьшилась в 10 раз. Владельцы сайта не видят смысла в поддержке погодного сервера в таких условиях. Сайт будет закрыт в октябре.
temp.,
°C
wind,
m/s
gust,
m/s
humid.,
%
clouds,
%
prec.,
mm/h
press.,
hPa
HPBL,
m
4 october, tue
tue423:00+5se1169100 0.0 102610
02:00+4nw0076100 0.0 102510
05:00+2nnw117920 0.0 102510
08:00+5ne016869 0.0 102562
11:00+14s2348100 0.0 1024691
14:00+17sse124199 0.0 10221037
17:00+14sse2462100 0.0 1021127
20:00+8sse118438 0.0 102110
5 october, wed
wed523:00+6nne009358 0.0 102110
02:00+6nne11954 0.0 102010
05:00+5n11979 0.0 101917
08:00+7n2390100 0.0 1018105
11:00+15nne2359100 0.0 1018545
14:00+18ene2346100 0.0 10151028
17:00+16ne1164100 0.0 101520
20:00+11ene1184100 0.0 101611
6 october, thu
thu623:00+9ne1195100 0.0 101510
02:00+8nnw229782 0.0 101525
05:00+7n119688 0.0 101419
08:00+9n12860 0.0 101576
11:00+18nnw12470 0.0 1014458
14:00+22wnw11395 0.0 1012836
17:00+19wsw116059 0.0 101211
20:00+13ssw227680 0.0 101320
7 october, fri
fri723:00+11ssw2284100 0.0 101315
02:00+11ssw1186100 0.0 101315
05:00+10s2283100 0.0 101220
08:00+12sse1277100 0.0 101278
11:00+16s356774 0.0 1012460
14:00+20s455212 0.0 1009953
17:00+16sse487116 0.0 1008442
20:00+11s3119818 0.1 1008304
8 october, sat
sat823:00+13w4897100 1.0 1008632
02:00+7nw41190100 1.8 1009614
05:00+5wnw410808 0.0 1011796
08:00+4w49775 0.0 1012969
11:00+8w584771 0.0 10131436
14:00+10w610343 0.0 10121688
17:00+10w494218 0.0 10131562
20:00+5w396020 0.0 1015295